QPF
0.02 0.05 0.08 0.11 0.08 0.06 0.04 0.02 0.03 0.03 0.01 0.01 0.01 0.01 0.00 0.00 0.00 0.00 0.00 0.00 0.00 0.00 0.00 0.00 0.01 0.01 0.01 0.00 0.00 0.00 0.00 0.00 0.00 0.00 0.00 0.00 0.01 0.01 0.01 0.01 0.01 0.02 0.04
0.01 0.02 0.06 0.07 0.06 0.04 0.03 0.02 0.02 0.03 0.01 0.01 0.01 0.01 0.00 0.00 0.00 0.00 0.00 0.00 0.00 0.00 0.00 0.00 0.00 0.00 0.00 0.00 0.00 0.00 0.00 0.00 0.00 0.00 0.00 0.00 0.00 0.00 0.00 0.00 0.01 0.01 0.02
0.01 0.02 0.03 0.05 0.05 0.03 0.02 0.02 0.02 0.02 0.01 0.01 0.01 0.01 0.00 0.00 0.00 0.00 0.00 0.00 0.00 0.00 0.00 0.00 0.00 0.00 0.00 0.00 0.00 0.00 0.00 0.00 0.00 0.00 0.00 0.00 0.00 0.00 0.00 0.00 0.00 0.00 0.00
0.01 0.02 0.01 0.02 0.03 0.02 0.01 0.02 0.02 0.01 0.01 0.01 0.01 0.00 0.00 0.00 0.00 0.00 0.00 0.00 0.00 0.00 0.00 0.00 0.00 0.00 0.00 0.00 0.00 0.00 0.00 0.00 0.00 0.00 0.00 0.00 0.00 0.01 0.00 0.00 0.00 0.00 0.00
0.01 0.01 0.01 0.02 0.03 0.02 0.02 0.02 0.02 0.01 0.01 0.01 0.01 0.00 0.00 0.00 0.00 0.00 0.00 0.00 0.00 0.00 0.00 0.00 0.00 0.00 0.00 0.00 0.00 0.00 0.00 0.00 0.00 0.00 0.00 0.00 0.00 0.01 0.01 0.00 0.00 0.00 0.00
0.00 0.01 0.01 0.01 0.02 0.03 0.02 0.03 0.02 0.02 0.01 0.01 0.01 0.00 0.00 0.00 0.00 0.00 0.00 0.00 0.00 0.00 0.00 0.00 0.00 0.00 0.00 0.00 0.00 0.00 0.00 0.00 0.00 0.00 0.00 0.00 0.00 0.01 0.01 0.01 0.00 0.00 0.00
0.00 0.00 0.00 0.01 0.01 0.02 0.02 0.03 0.03 0.02 0.02 0.01 0.01 0.00 0.00 0.00 0.00 0.00 0.00 0.00 0.00 0.00 0.00 0.00 0.00 0.00 0.00 0.00 0.00 0.00 0.00 0.00 0.00 0.00 0.00 0.00 0.00 0.01 0.01 0.00 0.00 0.00 0.00
0.00 0.00 0.00 0.00 0.00 0.01 0.01 0.02 0.02 0.02 0.01 0.01 0.01 0.00 0.00 0.00 0.00 0.00 0.00 0.00 0.00 0.00 0.00 0.00 0.00 0.00 0.00 0.00 0.00 0.00 0.00 0.00 0.00 0.00 0.00 0.00 0.00 0.00 0.00 0.00 0.00 0.00 0.00
0.00 0.00 0.00 0.00 0.00 0.00 0.01 0.01 0.01 0.01 0.01 0.01 0.01 0.01 0.01 0.00 0.00 0.00 0.00 0.00 0.00 0.00 0.00 0.00 0.00 0.00 0.00 0.00 0.00 0.00 0.00 0.00 0.00 0.00 0.00 0.00 0.00 0.00 0.00 0.00 0.00 0.00 0.00
0.00 0.00 0.00 0.00 0.00 0.00 0.01 0.01 0.01 0.01 0.02 0.02 0.01 0.01 0.01 0.01 0.00 0.00 0.00 0.00 0.00 0.00 0.00 0.00 0.00 0.00 0.00 0.00 0.00 0.00 0.00 0.00 0.00 0.00 0.00 0.00 0.00 0.00 0.00 0.00 0.00 0.01 0.01
0.00 0.00 0.00 0.00 0.00 0.00 0.00 0.01 0.01 0.01 0.02 0.02 0.02 0.01 0.00 0.01 0.01 0.00 0.00 0.00 0.00 0.00 0.00 0.00 0.00 0.00 0.00 0.00 0.00 0.00 0.00 0.00 0.00 0.00 0.00 0.00 0.00 0.01 0.01 0.01 0.01 0.01 0.01
0.00 0.00 0.00 0.00 0.00 0.00 0.00 0.01 0.01 0.01 0.01 0.01 0.01 0.01 0.01 0.01 0.01 0.01 0.01 0.01 0.01 0.00 0.00 0.00 0.00 0.00 0.00 0.00 0.00 0.00 0.00 0.00 0.00 0.00 0.00 0.00 0.01 0.01 0.01 0.01 0.01 0.01 0.01
0.00 0.00 0.00 0.00 0.00 0.00 0.00 0.01 0.01 0.01 0.01 0.01 0.01 0.01 0.02 0.01 0.01 0.01 0.01 0.00 0.00 0.00 0.00 0.00 0.00 0.00 0.00 0.00 0.00 0.00 0.00 0.00 0.00 0.00 0.00 0.00 0.00 0.01 0.01 0.01 0.01 0.01 0.01
0.00 0.00 0.00 0.00 0.00 0.00 0.00 0.00 0.01 0.01 0.01 0.01 0.01 0.02 0.02 0.02 0.01 0.01 0.01 0.00 0.00 0.00 0.00 0.00 0.00 0.00 0.00 0.00 0.00 0.00 0.00 0.00 0.00 0.00 0.00 0.00 0.00 0.00 0.00 0.01 0.01 0.01 0.01
0.00 0.00 0.00 0.00 0.00 0.00 0.00 0.00 0.00 0.00 0.00 0.01 0.01 0.01 0.02 0.01 0.01 0.01 0.01 0.00 0.00 0.00 0.00 0.00 0.00 0.00 0.00 0.00 0.00 0.00 0.00 0.00 0.00 0.00 0.00 0.00 0.00 0.00 0.00 0.00 0.00 0.00 0.01
0.00 0.00 0.00 0.00 0.00 0.00 0.00 0.00 0.00 0.00 0.00 0.00 0.01 0.01 0.01 0.02 0.01 0.01 0.01 0.01 0.01 0.01 0.00 0.00 0.00 0.00 0.00 0.00 0.00 0.00 0.00 0.00 0.00 0.00 0.00 0.00 0.00 0.00 0.00 0.00 0.00 0.00 0.00
0.00 0.00 0.00 0.00 0.00 0.00 0.00 0.00 0.00 0.00 0.00 0.00 0.00 0.01 0.01 0.01 0.01 0.01 0.00 0.00 0.00 0.00 0.01 0.00 0.00 0.00 0.00 0.00 0.00 0.00 0.00 0.00 0.00 0.00 0.00 0.00 0.00 0.00 0.00 0.00 0.00 0.00 0.00
0.00 0.00 0.00 0.00 0.00 0.00 0.00 0.00 0.00 0.00 0.00 0.00 0.00 0.00 0.01 0.01 0.01 0.00 0.00 0.00 0.00 0.00 0.00 0.00 0.00 0.00 0.00 0.00 0.00 0.00 0.00 0.00 0.00 0.00 0.00 0.00 0.00 0.00 0.00 0.00 0.00 0.00 0.00
0.00 0.00 0.00 0.00 0.00 0.00 0.00 0.00 0.00 0.00 0.00 0.00 0.00 0.00 0.00 0.00 0.00 0.00 0.00 0.00 0.00 0.00 0.00 0.00 0.00 0.00 0.00 0.00 0.00 0.00 0.00 0.00 0.00 0.00 0.00 0.00 0.00 0.00 0.00 0.00 0.00 0.00 0.00
0.00 0.00 0.00 0.00 0.00 0.00 0.00 0.00 0.00 0.00 0.00 0.00 0.00 0.00 0.00 0.00 0.00 0.00 0.00 0.00 0.00 0.00 0.00 0.00 0.00 0.00 0.00 0.00 0.00 0.00 0.00 0.00 0.00 0.00 0.00 0.00 0.00 0.00 0.00 0.00 0.00 0.00 0.00
0.00 0.00 0.00 0.00 0.00 0.00 0.00 0.00 0.00 0.00 0.00 0.00 0.00 0.00 0.00 0.00 0.00 0.00 0.00 0.00 0.00 0.00 0.00 0.00 0.00 0.00 0.00 0.00 0.00 0.00 0.00 0.00 0.00 0.00 0.00 0.00 0.00 0.00 0.00 0.00 0.00 0.00 0.00
0.00 0.00 0.00 0.00 0.00 0.00 0.00 0.00 0.00 0.00 0.00 0.00 0.00 0.00 0.00 0.00 0.00 0.00 0.00 0.00 0.00 0.00 0.00 0.00 0.00 0.00 0.00 0.00 0.00 0.00 0.00 0.00 0.00 0.00 0.00 0.00 0.00 0.00 0.00 0.00 0.00 0.00 0.00
0.00 0.00 0.00 0.00 0.00 0.00 0.00 0.00 0.00 0.00 0.00 0.00 0.00 0.00 0.00 0.00 0.00 0.00 0.00 0.00 0.00 0.00 0.00 0.00 0.00 0.00 0.00 0.00 0.00 0.00 0.00 0.00 0.00 0.00 0.00 0.00 0.00 0.00 0.00 0.00 0.00 0.00 0.00
0.00 0.00 0.00 0.00 0.00 0.00 0.00 0.00 0.00 0.00 0.00 0.00 0.00 0.00 0.00 0.00 0.00 0.00 0.00 0.00 0.00 0.00 0.00 0.00 0.00 0.00 0.00 0.00 0.00 0.00 0.00 0.00 0.00 0.00 0.00 0.00 0.00 0.00 0.00 0.00 0.00 0.00 0.00
0.00 0.00 0.00 0.00 0.00 0.00 0.00 0.00 0.00 0.00 0.00 0.00 0.00 0.00 0.00 0.00 0.00 0.00 0.00 0.00 0.00 0.00 0.00 0.00 0.00 0.00 0.00 0.00 0.00 0.00 0.00 0.00 0.00 0.00 0.00 0.00 0.00 0.00 0.00 0.00 0.00 0.00 0.00
0.00 0.00 0.00 0.00 0.00 0.00 0.00 0.00 0.00 0.00 0.00 0.00 0.00 0.00 0.00 0.00 0.00 0.00 0.00 0.00 0.00 0.00 0.00 0.00 0.00 0.00 0.00 0.00 0.00 0.00 0.00 0.00 0.00 0.00 0.00 0.00 0.00 0.00 0.00 0.00 0.00 0.00 0.00
MSLP
1020.94 1020.71 1020.57 1020.53 1020.58 1020.70 1020.86 1021.02 1021.16 1021.24 1021.28 1021.26 1021.22 1021.18 1021.16 1021.17 1021.21 1021.25 1021.29 1021.29 1021.27 1021.21 1021.14 1021.09 1021.07 1021.10 1021.17 1021.27 1021.38 1021.46 1021.50 1021.48 1021.41 1021.30 1021.19 1021.08 1021.01 1020.95 1020.91 1020.86 1020.79 1020.68 1020.54
1020.75 1020.54 1020.42 1020.42 1020.51 1020.68 1020.88 1021.10 1021.28 1021.41 1021.49 1021.53 1021.55 1021.58 1021.63 1021.69 1021.77 1021.83 1021.87 1021.86 1021.81 1021.73 1021.64 1021.57 1021.54 1021.57 1021.65 1021.76 1021.88 1021.98 1022.03 1022.03 1021.99 1021.91 1021.83 1021.75 1021.68 1021.63 1021.59 1021.52 1021.43 1021.29 1021.12
1020.49 1020.31 1020.22 1020.26 1020.40 1020.63 1020.90 1021.18 1021.42 1021.61 1021.75 1021.85 1021.93 1022.02 1022.12 1022.22 1022.32 1022.39 1022.41 1022.38 1022.30 1022.19 1022.08 1022.00 1021.97 1022.01 1022.10 1022.23 1022.37 1022.49 1022.56 1022.59 1022.57 1022.52 1022.46 1022.40 1022.35 1022.31 1022.25 1022.18 1022.07 1021.92 1021.74
1020.26 1020.10 1020.06 1020.15 1020.35 1020.65 1020.98 1021.31 1021.61 1021.85 1022.04 1022.19 1022.32 1022.45 1022.58 1022.71 1022.80 1022.86 1022.87 1022.81 1022.71 1022.58 1022.47 1022.40 1022.39 1022.44 1022.56 1022.72 1022.88 1023.01 1023.11 1023.15 1023.15 1023.11 1023.07 1023.02 1022.97 1022.92 1022.86 1022.78 1022.67 1022.52 1022.33
1020.10 1019.99 1020.00 1020.15 1020.42 1020.76 1021.14 1021.51 1021.84 1022.12 1022.33 1022.52 1022.67 1022.83 1022.97 1023.10 1023.20 1023.24 1023.23 1023.16 1023.05 1022.93 1022.84 1022.79 1022.82 1022.92 1023.07 1023.25 1023.44 1023.58 1023.68 1023.73 1023.73 1023.69 1023.64 1023.58 1023.52 1023.46 1023.39 1023.30 1023.18 1023.04 1022.87
1020.08 1020.02 1020.08 1020.29 1020.61 1020.99 1021.39 1021.77 1022.10 1022.37 1022.59 1022.78 1022.95 1023.11 1023.26 1023.40 1023.50 1023.54 1023.53 1023.46 1023.37 1023.28 1023.23 1023.23 1023.31 1023.45 1023.65 1023.86 1024.06 1024.21 1024.30 1024.34 1024.32 1024.26 1024.18 1024.09 1024.01 1023.92 1023.83 1023.73 1023.62 1023.49 1023.35
1020.19 1020.19 1020.32 1020.57 1020.91 1021.30 1021.69 1022.05 1022.35 1022.59 1022.79 1022.96 1023.13 1023.30 1023.47 1023.62 1023.73 1023.79 1023.80 1023.76 1023.71 1023.66 1023.67 1023.73 1023.87 1024.06 1024.30 1024.54 1024.74 1024.89 1024.97 1024.98 1024.93 1024.83 1024.72 1024.59 1024.46 1024.34 1024.22 1024.10 1023.99 1023.87 1023.76
1020.41 1020.47 1020.64 1020.92 1021.27 1021.64 1021.99 1022.29 1022.53 1022.73 1022.89 1023.06 1023.23 1023.42 1023.62 1023.80 1023.95 1024.05 1024.09 1024.10 1024.10 1024.11 1024.17 1024.30 1024.50 1024.74 1025.01 1025.26 1025.47 1025.61 1025.67 1025.65 1025.56 1025.43 1025.27 1025.10 1024.93 1024.77 1024.62 1024.48 1024.36 1024.25 1024.16
1020.69 1020.79 1021.00 1021.29 1021.62 1021.94 1022.23 1022.45 1022.63 1022.78 1022.92 1023.08 1023.28 1023.52 1023.76 1024.00 1024.20 1024.35 1024.45 1024.51 1024.56 1024.63 1024.75 1024.93 1025.17 1025.45 1025.74 1026.01 1026.22 1026.35 1026.39 1026.35 1026.24 1026.08 1025.88 1025.68 1025.47 1025.27 1025.08 1024.92 1024.78 1024.67 1024.59
1020.97 1021.11 1021.33 1021.61 1021.90 1022.16 1022.37 1022.52 1022.64 1022.75 1022.88 1023.07 1023.31 1023.60 1023.92 1024.23 1024.49 1024.70 1024.86 1024.97 1025.07 1025.18 1025.35 1025.57 1025.84 1026.15 1026.46 1026.73 1026.94 1027.07 1027.11 1027.07 1026.95 1026.78 1026.57 1026.35 1026.12 1025.88 1025.67 1025.47 1025.31 1025.18 1025.10
1021.20 1021.37 1021.60 1021.86 1022.10 1022.29 1022.42 1022.51 1022.58 1022.67 1022.81 1023.04 1023.34 1023.71 1024.10 1024.48 1024.82 1025.09 1025.29 1025.45 1025.59 1025.74 1025.94 1026.18 1026.48 1026.80 1027.12 1027.41 1027.63 1027.77 1027.82 1027.80 1027.70 1027.54 1027.35 1027.12 1026.88 1026.63 1026.38 1026.16 1025.96 1025.81 1025.71
1021.38 1021.57 1021.80 1022.02 1022.20 1022.33 1022.40 1022.43 1022.47 1022.56 1022.73 1023.00 1023.37 1023.81 1024.28 1024.72 1025.12 1025.44 1025.69 1025.88 1026.06 1026.25 1026.47 1026.74 1027.06 1027.40 1027.73 1028.03 1028.27 1028.44 1028.52 1028.53 1028.47 1028.36 1028.19 1027.99 1027.75 1027.49 1027.23 1026.97 1026.74 1026.55 1026.41
1021.51 1021.71 1021.93 1022.12 1022.25 1022.32 1022.34 1022.33 1022.36 1022.45 1022.65 1022.97 1023.39 1023.89 1024.41 1024.91 1025.34 1025.71 1025.99 1026.23 1026.44 1026.66 1026.92 1027.23 1027.57 1027.93 1028.29 1028.61 1028.88 1029.08 1029.22 1029.28 1029.27 1029.20 1029.08 1028.91 1028.69 1028.44 1028.16 1027.87 1027.61 1027.38 1027.20
1021.60 1021.81 1022.01 1022.18 1022.27 1022.30 1022.28 1022.25 1022.27 1022.37 1022.60 1022.94 1023.40 1023.92 1024.46 1024.98 1025.45 1025.84 1026.16 1026.44 1026.70 1026.98 1027.29 1027.64 1028.03 1028.43 1028.82 1029.18 1029.49 1029.74 1029.92 1030.03 1030.08 1030.07 1030.00 1029.87 1029.67 1029.42 1029.14 1028.83 1028.53 1028.27 1028.04
1021.65 1021.88 1022.08 1022.22 1022.29 1022.29 1022.25 1022.22 1022.24 1022.35 1022.58 1022.93 1023.38 1023.89 1024.43 1024.94 1025.41 1025.82 1026.18 1026.51 1026.84 1027.19 1027.58 1028.01 1028.46 1028.92 1029.36 1029.77 1030.12 1030.41 1030.64 1030.81 1030.91 1030.95 1030.92 1030.82 1030.65 1030.42 1030.13 1029.81 1029.49 1029.19 1028.93
1021.67 1021.91 1022.11 1022.25 1022.31 1022.30 1022.27 1022.24 1022.27 1022.39 1022.61 1022.94 1023.36 1023.84 1024.33 1024.81 1025.27 1025.69 1026.09 1026.48 1026.90 1027.35 1027.83 1028.35 1028.89 1029.42 1029.92 1030.38 1030.78 1031.11 1031.38 1031.59 1031.74 1031.82 1031.83 1031.76 1031.61 1031.39 1031.11 1030.79 1030.46 1030.14 1029.85
1021.64 1021.89 1022.10 1022.24 1022.31 1022.33 1022.32 1022.32 1022.37 1022.49 1022.70 1023.00 1023.37 1023.78 1024.22 1024.65 1025.08 1025.51 1025.95 1026.42 1026.92 1027.48 1028.07 1028.69 1029.32 1029.93 1030.49 1031.00 1031.44 1031.81 1032.12 1032.37 1032.55 1032.66 1032.70 1032.66 1032.54 1032.34 1032.08 1031.77 1031.44 1031.11 1030.80
1021.50 1021.78 1022.00 1022.17 1022.27 1022.33 1022.37 1022.42 1022.51 1022.65 1022.86 1023.13 1023.45 1023.79 1024.16 1024.54 1024.94 1025.37 1025.84 1026.37 1026.96 1027.61 1028.31 1029.02 1029.73 1030.40 1031.02 1031.58 1032.06 1032.47 1032.81 1033.09 1033.31 1033.45 1033.52 1033.51 1033.42 1033.25 1033.01 1032.72 1032.41 1032.08 1031.77
1021.22 1021.53 1021.78 1021.99 1022.14 1022.27 1022.38 1022.50 1022.66 1022.85 1023.07 1023.33 1023.61 1023.90 1024.21 1024.54 1024.91 1025.34 1025.83 1026.41 1027.06 1027.77 1028.54 1029.31 1030.07 1030.80 1031.46 1032.05 1032.57 1033.02 1033.40 1033.72 1033.97 1034.16 1034.26 1034.29 1034.23 1034.10 1033.90 1033.64 1033.36 1033.05 1032.75
1020.79 1021.12 1021.41 1021.66 1021.88 1022.09 1022.30 1022.53 1022.77 1023.03 1023.31 1023.58 1023.85 1024.12 1024.39 1024.69 1025.03 1025.44 1025.94 1026.53 1027.21 1027.95 1028.74 1029.53 1030.31 1031.05 1031.73 1032.35 1032.90 1033.39 1033.82 1034.19 1034.50 1034.73 1034.88 1034.96 1034.95 1034.86 1034.71 1034.50 1034.25 1033.98 1033.68
1020.18 1020.55 1020.88 1021.19 1021.48 1021.79 1022.10 1022.44 1022.80 1023.16 1023.51 1023.84 1024.13 1024.40 1024.67 1024.95 1025.28 1025.67 1026.16 1026.73 1027.39 1028.12 1028.88 1029.65 1030.41 1031.13 1031.81 1032.44 1033.02 1033.55 1034.04 1034.47 1034.84 1035.13 1035.35 1035.48 1035.52 1035.49 1035.40 1035.24 1035.04 1034.80 1034.53
1019.43 1019.84 1020.22 1020.58 1020.95 1021.34 1021.77 1022.23 1022.70 1023.18 1023.63 1024.03 1024.39 1024.70 1024.99 1025.28 1025.60 1025.98 1026.44 1026.98 1027.59 1028.25 1028.95 1029.66 1030.36 1031.03 1031.69 1032.32 1032.92 1033.50 1034.04 1034.54 1034.98 1035.35 1035.63 1035.82 1035.93 1035.96 1035.92 1035.82 1035.67 1035.48 1035.24
1018.60 1019.05 1019.47 1019.87 1020.30 1020.77 1021.29 1021.86 1022.45 1023.04 1023.60 1024.10 1024.54 1024.91 1025.25 1025.57 1025.91 1026.29 1026.72 1027.21 1027.76 1028.34 1028.95 1029.56 1030.18 1030.79 1031.41 1032.02 1032.64 1033.26 1033.86 1034.43 1034.94 1035.38 1035.72 1035.98 1036.14 1036.22 1036.24 1036.19 1036.10 1035.96 1035.76
1017.76 1018.25 1018.69 1019.12 1019.59 1020.11 1020.70 1021.35 1022.04 1022.73 1023.39 1023.99 1024.52 1024.98 1025.38 1025.76 1026.13 1026.52 1026.95 1027.40 1027.88 1028.39 1028.90 1029.42 1029.95 1030.49 1031.06 1031.66 1032.28 1032.93 1033.57 1034.19 1034.76 1035.26 1035.66 1035.96 1036.18 1036.31 1036.37 1036.37 1036.33 1036.23 1036.08
1016.99 1017.51 1017.96 1018.40 1018.88 1019.43 1020.05 1020.75 1021.50 1022.26 1023.00 1023.68 1024.30 1024.85 1025.34 1025.79 1026.22 1026.65 1027.09 1027.53 1027.98 1028.43 1028.87 1029.31 1029.76 1030.23 1030.75 1031.32 1031.94 1032.59 1033.27 1033.92 1034.53 1035.07 1035.51 1035.84 1036.08 1036.25 1036.34 1036.39 1036.39 1036.33 1036.22
1016.36 1016.88 1017.33 1017.77 1018.24 1018.77 1019.40 1020.11 1020.89 1021.69 1022.48 1023.23 1023.92 1024.55 1025.12 1025.66 1026.17 1026.67 1027.15 1027.61 1028.06 1028.48 1028.88 1029.27 1029.67 1030.09 1030.56 1031.10 1031.70 1032.35 1033.03 1033.70 1034.32 1034.87 1035.32 1035.68 1035.94 1036.12 1036.24 1036.31 1036.34 1036.32 1036.25
Thickness
5686 5687 5686 5686 5685 5684 5684 5684 5684 5684 5684 5685 5685 5686 5687 5688 5690 5691 5692 5694 5695 5696 5696 5696 5696 5696 5696 5696 5696 5695 5694 5694 5694 5694 5694 5695 5695 5695 5695 5695 5696 5696 5696
5691 5689 5688 5686 5685 5684 5683 5682 5682 5682 5682 5682 5682 5683 5684 5685 5686 5686 5688 5689 5690 5691 5692 5691 5691 5691 5691 5691 5690 5690 5689 5689 5688 5688 5688 5689 5689 5689 5689 5689 5690 5690 5690
5693 5691 5689 5687 5685 5684 5683 5681 5681 5680 5680 5680 5680 5680 5681 5681 5682 5683 5684 5685 5686 5687 5687 5687 5687 5687 5687 5686 5686 5685 5684 5683 5683 5683 5683 5683 5684 5684 5683 5683 5683 5684 5684
5694 5692 5690 5688 5686 5684 5683 5681 5680 5679 5679 5678 5678 5678 5678 5678 5679 5680 5680 5681 5682 5683 5683 5683 5682 5682 5682 5681 5680 5679 5679 5678 5678 5677 5678 5678 5678 5678 5678 5678 5677 5677 5678
5695 5693 5690 5688 5686 5685 5683 5681 5680 5679 5678 5677 5676 5676 5676 5676 5676 5676 5677 5678 5678 5679 5679 5678 5678 5677 5677 5676 5675 5674 5673 5672 5672 5672 5672 5672 5673 5672 5672 5672 5671 5671 5672
5695 5693 5691 5689 5687 5685 5683 5682 5680 5679 5677 5676 5675 5674 5674 5673 5673 5673 5673 5674 5674 5674 5674 5673 5673 5673 5672 5671 5670 5668 5667 5666 5667 5667 5667 5667 5667 5667 5667 5666 5666 5665 5666
5695 5693 5691 5689 5687 5686 5684 5682 5680 5678 5677 5675 5674 5673 5672 5671 5670 5670 5670 5670 5670 5670 5669 5668 5668 5667 5666 5665 5664 5662 5661 5661 5661 5661 5661 5661 5661 5661 5661 5660 5660 5659 5659
5695 5693 5691 5689 5687 5686 5684 5682 5680 5678 5676 5674 5673 5671 5669 5668 5667 5667 5666 5666 5665 5665 5664 5663 5663 5662 5660 5659 5658 5656 5656 5655 5655 5655 5655 5655 5655 5655 5655 5654 5654 5654 5653
5693 5692 5690 5688 5687 5685 5683 5681 5679 5677 5675 5673 5671 5669 5667 5666 5664 5663 5662 5662 5661 5660 5659 5658 5657 5656 5654 5653 5651 5650 5650 5649 5650 5649 5649 5649 5648 5648 5648 5648 5648 5647 5647
5691 5690 5689 5687 5686 5684 5682 5680 5678 5676 5674 5672 5670 5668 5665 5663 5661 5659 5658 5657 5656 5655 5654 5653 5652 5650 5648 5647 5645 5644 5643 5643 5643 5643 5642 5642 5641 5641 5641 5641 5641 5640 5640
5688 5687 5686 5685 5684 5683 5681 5679 5677 5675 5673 5671 5668 5666 5663 5661 5658 5656 5654 5653 5651 5650 5648 5647 5646 5644 5642 5640 5639 5637 5637 5635 5635 5635 5635 5634 5634 5634 5633 5633 5633 5633 5632
5685 5684 5684 5683 5682 5681 5680 5678 5675 5673 5671 5669 5666 5664 5661 5659 5656 5653 5650 5649 5647 5645 5643 5641 5640 5638 5636 5634 5632 5630 5629 5628 5627 5626 5625 5625 5626 5626 5625 5625 5624 5624 5623
5683 5682 5681 5680 5680 5679 5678 5676 5674 5671 5669 5667 5665 5662 5659 5656 5653 5650 5647 5644 5642 5640 5638 5635 5634 5632 5630 5627 5625 5622 5621 5619 5617 5616 5614 5615 5616 5616 5615 5615 5614 5614 5613
5680 5680 5678 5678 5677 5676 5675 5674 5672 5670 5667 5665 5663 5660 5657 5654 5650 5647 5643 5640 5638 5635 5632 5630 5627 5625 5622 5619 5617 5614 5612 5609 5607 5605 5604 5604 5604 5604 5604 5604 5603 5602 5602
5677 5677 5676 5675 5674 5673 5672 5671 5669 5667 5665 5663 5660 5658 5655 5652 5648 5644 5640 5636 5633 5630 5627 5624 5621 5617 5614 5611 5607 5605 5601 5599 5597 5595 5593 5592 5592 5592 5592 5591 5590 5590 5589
5676 5674 5673 5672 5671 5670 5669 5667 5665 5663 5662 5660 5657 5655 5652 5649 5645 5640 5636 5632 5628 5625 5622 5618 5614 5610 5606 5602 5597 5594 5591 5588 5586 5584 5583 5581 5580 5579 5578 5578 5577 5576 5575
5673 5672 5670 5669 5668 5667 5666 5664 5661 5659 5658 5656 5653 5651 5649 5645 5641 5637 5632 5627 5623 5619 5616 5611 5607 5602 5597 5592 5587 5583 5580 5577 5575 5573 5571 5569 5568 5566 5564 5563 5562 5560 5559
5670 5668 5667 5666 5665 5664 5662 5659 5657 5655 5653 5651 5649 5647 5644 5641 5637 5632 5627 5622 5617 5614 5609 5604 5599 5594 5587 5582 5576 5572 5569 5566 5564 5561 5559 5557 5555 5552 5550 5548 5546 5545 5543
5667 5664 5663 5662 5660 5659 5656 5654 5652 5649 5647 5645 5643 5641 5638 5635 5631 5627 5621 5616 5611 5607 5602 5597 5591 5586 5578 5571 5565 5560 5557 5554 5552 5550 5547 5544 5541 5538 5536 5533 5530 5528 5526
5663 5661 5659 5657 5655 5653 5650 5647 5644 5642 5639 5637 5636 5634 5631 5628 5624 5620 5614 5609 5605 5599 5593 5588 5582 5576 5570 5564 5557 5549 5544 5541 5540 5537 5534 5531 5528 5524 5521 5518 5515 5511 5508
5659 5657 5656 5653 5651 5648 5645 5641 5638 5634 5631 5629 5628 5626 5624 5620 5617 5613 5607 5602 5597 5592 5586 5581 5574 5566 5558 5553 5547 5537 5531 5529 5526 5523 5520 5517 5514 5510 5507 5503 5499 5494 5490
5659 5656 5653 5651 5647 5644 5641 5638 5633 5628 5623 5620 5618 5616 5614 5612 5608 5605 5601 5595 5590 5584 5577 5572 5567 5556 5547 5544 5540 5530 5521 5516 5513 5510 5506 5503 5499 5495 5491 5486 5482 5477 5473
5659 5656 5653 5649 5644 5640 5636 5631 5625 5619 5614 5610 5607 5605 5603 5601 5599 5596 5592 5587 5582 5577 5571 5565 5561 5554 5541 5533 5532 5528 5517 5510 5501 5496 5492 5488 5484 5480 5474 5469 5465 5460 5455
5662 5655 5650 5646 5641 5636 5631 5626 5623 5620 5613 5606 5601 5596 5593 5591 5588 5585 5582 5578 5573 5568 5563 5557 5552 5547 5539 5528 5520 5515 5511 5505 5495 5485 5479 5474 5470 5464 5459 5453 5448 5442 5437
5657 5651 5646 5641 5636 5631 5626 5621 5618 5615 5607 5598 5591 5587 5583 5579 5577 5574 5571 5568 5563 5558 5553 5548 5543 5537 5531 5522 5514 5505 5497 5490 5484 5476 5468 5460 5455 5449 5443 5437 5431 5425 5420
5651 5646 5641 5636 5631 5626 5620 5615 5612 5607 5598 5590 5584 5578 5572 5568 5565 5562 5560 5557 5553 5548 5543 5538 5533 5527 5521 5514 5506 5499 5490 5481 5471 5464 5454 5445 5437 5433 5427 5422 5415 5409 5403